カタログに戻る

ITALSAT 1

運用中通信GEO
NORAD 21055·PAYLOAD·🇮🇹 Italy

打ち上げ Jan 15, 1991 から Guiana Space Centre

Loading…

TLE

最新Source: Space-Track

元期: Sep 13, 2026, 15:05 UTC

1 21055U 91003A   26256.62892209 -.00000375  00000-0  00000-0 0  9991
2 21055  14.5285 350.8147 0009314  57.7283 291.8475  0.99966485117963

AllMySatでITALSAT 1をリアルタイム追跡

Download on the App Store